Location: Newport
(44.6370°N, 124.0520°W)
Time: 06:41:31
(UTC-07:00)

Vanguard 2 - Visible Passes

Search period start: 23 October 2017 00:00
Search period end: 02 November 2017 00:00
Orbit: 553 x 2939 km, 32.9° (Epoch: 22 October)

Date Brightness Start Highest point End Pass type
(mag) Time Alt. Az. Time Alt. Az. Time Alt. Az.
23 Oct 11.7 06:34:26 10° SSW 06:47:09 26° SSE 06:57:33 10° ESE visible
24 Oct 12.0 04:48:38 10° SSE 04:55:01 13° SE 05:01:06 10° ESE visible
24 Oct 11.5 06:50:57 10° SSW 07:05:04 32° SSE 07:16:18 10° E visible
25 Oct 11.9 05:02:26 10° S 05:12:44 19° SE 05:22:13 10° ESE visible
25 Oct 11.3 07:07:54 10° SW 07:23:01 37° SSE 07:34:46 10° E visible
26 Oct 11.7 05:17:55 10° S 05:30:28 24° SE 05:41:49 10° E visible
27 Oct 12.0 03:36:39 10° SE 03:38:35 10° SE 03:40:31 10° SE visible
27 Oct 11.5 05:34:11 10° SSW 05:48:14 30° SSE 06:00:47 10° E visible
28 Oct 11.8 03:47:31 10° SSE 03:56:07 16° SE 04:04:41 10° ESE visible
28 Oct 11.3 05:50:57 10° SSW 06:06:04 36° SSE 06:19:24 10° E visible
29 Oct 11.6 04:02:23 10° S 04:13:39 21° SE 04:24:56 10° E visible
29 Oct 11.1 06:08:05 10° SW 06:23:57 42° SSE 06:37:47 10° E visible
30 Oct 11.4 04:20:02 13° S 04:31:15 27° SE 04:44:14 10° E visible
30 Oct 11.0 06:25:31 10° SW 06:41:54 47° SSE 06:56:03 10° E visible
31 Oct 11.7 02:36:16 11° SE 02:39:40 12° SE 02:44:44 10° ESE visible
31 Oct 11.2 04:37:44 17° SSW 04:48:55 33° SSE 05:03:04 10° E visible
31 Oct 10.9 06:43:09 10° SW 06:59:53 51° SSE 07:14:12 10° E visible
01 Nov 11.5 02:53:53 16° SSE 02:57:02 17° SE 03:06:38 10° E visible
01 Nov 11.1 04:55:20 19° SSW 05:06:40 39° SSE 05:21:36 10° E visible
01 Nov 10.8 07:00:57 10° WSW 07:17:55 53° S 07:32:17 10° ESE visible
